TimeMST,TemperatureF,Dew PointF,Humidity,Sea Level PressureIn,VisibilityMPH,Wind Direction,Wind SpeedMPH,Gust SpeedMPH,PrecipitationIn,Events,Conditions,WindDirDegrees,DateUTC
12:53 AM,32.0,24.1,73,30.22,10.0,ESE,5.8,-,N/A,,Mostly Cloudy,120,2014-01-29 07:53:00
1:53 AM,30.9,25.0,79,30.23,10.0,NNW,3.5,-,N/A,,Mostly Cloudy,330,2014-01-29 08:53:00
2:53 AM,30.9,26.1,82,30.17,10.0,Calm,Calm,-,N/A,,Mostly Cloudy,0,2014-01-29 09:53:00
3:53 AM,32.0,28.9,88,30.19,10.0,Calm,Calm,-,N/A,,Overcast,0,2014-01-29 10:53:00
4:53 AM,33.1,27.0,78,30.16,10.0,ESE,5.8,-,N/A,,Overcast,120,2014-01-29 11:53:00
5:53 AM,35.1,23.0,61,30.13,10.0,ESE,9.2,-,N/A,,Overcast,120,2014-01-29 12:53:00
6:53 AM,36.0,21.9,57,30.13,10.0,SE,9.2,-,N/A,,Overcast,130,2014-01-29 13:53:00
7:53 AM,36.0,24.1,62,30.12,10.0,WNW,8.1,-,N/A,,Overcast,290,2014-01-29 14:53:00
8:53 AM,35.1,27.0,72,30.12,10.0,Calm,Calm,-,N/A,,Overcast,0,2014-01-29 15:53:00
9:53 AM,39.9,19.0,43,30.09,10.0,SE,5.8,-,N/A,,Overcast,140,2014-01-29 16:53:00
10:53 AM,41.0,19.9,43,30.05,10.0,SSE,9.2,-,N/A,,Overcast,160,2014-01-29 17:53:00
11:53 AM,41.0,24.1,51,30.03,10.0,SE,9.2,-,N/A,,Overcast,130,2014-01-29 18:53:00
12:53 PM,43.0,27.0,53,29.97,10.0,SE,12.7,-,0.00,Rain,Light Rain,140,2014-01-29 19:53:00
1:53 PM,45.0,28.9,53,29.92,10.0,SE,17.3,25.3,0.00,,Overcast,140,2014-01-29 20:53:00
2:53 PM,46.9,28.0,48,29.85,10.0,SSE,15.0,-,N/A,,Overcast,150,2014-01-29 21:53:00
3:53 PM,48.0,27.0,44,29.83,10.0,South,12.7,23.0,N/A,,Overcast,170,2014-01-29 22:53:00
4:53 PM,48.0,27.0,44,29.76,10.0,SSE,17.3,-,N/A,,Overcast,160,2014-01-29 23:53:00
5:53 PM,48.9,27.0,43,29.70,10.0,South,18.4,-,N/A,,Overcast,180,2014-01-30 00:53:00
6:53 PM,50.0,27.0,41,29.65,10.0,South,25.3,33.4,N/A,,Overcast,180,2014-01-30 01:53:00
7:53 PM,43.0,33.1,68,29.78,9.0,NNW,38.0,46.0,0.00,Rain,Light Rain,340,2014-01-30 02:53:00
7:55 PM,41.0,35.1,79,29.80,8.0,NNW,31.1,46.0,0.00,Rain,Rain,340,2014-01-30 02:55:00
8:13 PM,37.9,36.0,93,29.82,8.0,North,25.3,-,0.02,Rain,Light Rain,10,2014-01-30 03:13:00
8:44 PM,37.0,36.0,96,29.84,5.0,North,21.9,-,0.09,Rain,Heavy Rain,10,2014-01-30 03:44:00
8:53 PM,37.0,36.0,96,29.81,5.0,North,17.3,-,0.13,Rain,Rain,10,2014-01-30 03:53:00
9:24 PM,36.0,35.1,97,29.87,4.0,NW,8.1,-,0.07,Snow,Light Snow,320,2014-01-30 04:24:00
9:53 PM,36.0,35.1,97,29.89,2.0,North,10.4,-,0.13,Snow,Light Snow,350,2014-01-30 04:53:00
10:22 PM,35.1,34.0,96,29.89,2.0,NNW,4.6,-,0.06,Snow,Light Snow,330,2014-01-30 05:22:00
10:41 PM,35.1,35.1,100,29.90,0.5,West,4.6,-,0.10,Snow,Light Snow,260,2014-01-30 05:41:00
10:53 PM,34.0,34.0,100,29.90,0.5,West,3.5,-,0.12,Snow,Light Snow,260,2014-01-30 05:53:00
11:00 PM,34.0,34.0,100,29.89,0.5,WSW,3.5,-,0.02,Snow,Light Snow,250,2014-01-30 06:00:00
11:53 PM,34.0,34.0,100,29.89,0.5,SW,3.5,-,0.12,Snow,Light Snow,220,2014-01-30 06:53:00